Location: Aurora Center
(43.5271°N, 98.5894°W)
Time: 06:36:56
(UTC-05:00)

Transit 2A Rocket - Visible Passes

Search period start: 19 July 2024 00:00
Search period end: 29 July 2024 00:00
Orbit: 582 x 910 km, 66.7° (Epoch: 18 July)

Date Brightness Start Highest point End Pass type
(mag) Time Alt. Az. Time Alt. Az. Time Alt. Az.
19 Jul 5.3 00:15:19 10° NW 00:21:26 77° WSW 00:22:54 53° S visible
19 Jul 7.4 02:00:42 10° WNW 02:02:41 12° W 02:02:41 12° W visible
19 Jul 7.3 21:49:34 10° N 21:53:34 18° NE 21:57:32 10° ENE visible
19 Jul 5.4 23:31:10 10° NNW 23:37:16 68° NE 23:39:48 35° SE visible
20 Jul 6.8 01:14:46 10° WNW 01:19:13 22° WSW 01:19:35 22° WSW visible
20 Jul 6.0 22:47:08 10° NNW 22:52:58 44° NE 22:56:44 20° ESE visible
21 Jul 6.1 00:29:56 10° NW 00:35:25 36° WSW 00:36:31 34° SW visible
21 Jul 6.6 22:03:13 10° NNW 22:08:30 29° NE 22:13:38 10° ESE visible
21 Jul 5.5 23:45:28 10° NW 23:51:28 61° WSW 23:53:29 40° S visible
22 Jul 5.3 23:01:14 10° NNW 23:07:21 84° ENE 23:10:29 30° SE visible
23 Jul 7.1 00:45:26 10° WNW 00:49:05 17° WSW 00:50:17 16° WSW visible
23 Jul 5.7 22:17:08 10° NNW 22:23:06 53° NE 22:27:33 17° SE visible
24 Jul 6.6 00:00:15 10° NW 00:05:20 29° WSW 00:07:20 23° SW visible
24 Jul 6.3 21:33:09 10° NNW 21:38:42 35° NE 21:44:05 10° ESE visible
24 Jul 5.9 23:15:38 10° NW 23:21:27 48° WSW 23:24:26 26° S visible
25 Jul 5.4 22:31:18 10° NNW 22:37:24 79° WSW 22:41:35 20° SSE visible
26 Jul 7.5 00:16:27 10° WNW 00:18:54 13° W 00:21:17 10° SW visible
26 Jul 5.5 21:47:07 10° NNW 21:53:12 65° NE 21:58:46 11° SE visible
26 Jul 7.1 23:30:40 10° WNW 23:35:12 23° WSW 23:38:34 14° SSW visible
27 Jul 6.4 22:45:50 10° NW 22:51:22 38° WSW 22:55:49 14° S visible
28 Jul 5.7 22:01:23 10° NW 22:07:23 63° WSW 22:13:04 10° SSE visible
